Tracking 19651 objects as of 23-Apr-2019
HD Live streaming from Space Station
objects crossing your sky now

SL-16 DEB

Track SL-16 DEB now!
10-day predictions


NORAD ID: 39896
Int'l Code: 1993-016BW
Perigee: 719.4 km
Apogee: 891.9 km
Inclination: 71.0 °
Period: 100.8 minutes
Semi major axis: 7176 km
RCS: 0.0061 m2 (small)
Launch date: March 26, 1993
Source: Commonwealth of Independent States (former USSR) (CIS)
Launch site: TYURATAM MISSILE AND SPACE COMPLEX (TTMTR)

Note: This is SATELLITE DEBRIS
aabbcc
Your satellite tracking list
Your tracking list is empty




NASA's NSSDC Master Catalog

Two Line Element Set (TLE):
1 39896U 93016BW  19100.04044121  .00001960  00000-0  74963-3 0  9999
2 39896  70.9611 351.3989 0120127 151.0704 209.7156 14.27974556810043
Source of the keplerian elements: AFSPC